Date String (YYYY-MM-DD hh:mm:ss) UTC,Instrument flags,absolute air pressure of the measurement (hPa),sample flow rate (lpm),inlet stack bypass flow (lpm),air temperature of the measurement (°C),ambient temperature measured by the external sensor (°C),aerosol sample conditioner tube jacket temperature (°C),OPC LED temperature (°C),internal box temperature (°C),relative humidity of the measurement (%),span deviation,mass concentration of particles derived from Lorenz-Mie calculation of OPC scattering (μg/m³),mass concentration of particles derived from Lorenz-Mie calculation of OPC scattering (μg/m³),mass concentration of particles derived from Lorenz-Mie calculation of OPC scattering (μg/m³)
DateTimeUTC,F1_M11,P_M11,Q1_M11,Q2_M11,T1_M11,T2_M11,T3_M11,T4_M11,T5_M11,U1_M11,ZSPAN_M11,X2_M11,X0_M11,X1_M11
2024-03-10 22:00:00,SystemResetWarning,0826.6,5.00,000.00,025.0,024.4,000.0,033.3,026.8,06.0,0000.0,0004.04,0015.56,0002.59
2024-03-10 22:01:00,SystemResetWarning,0826.6,5.00,000.00,025.0,024.5,000.0,033.3,026.8,06.5,0000.0,0004.08,0016.01,0002.52
2024-03-10 22:02:00,SystemResetWarning,0826.6,5.00,000.00,025.1,024.5,000.0,033.3,026.8,05.8,0000.0,0004.10,0016.15,0002.45
2024-03-10 22:03:00,SystemResetWarning,0826.6,5.01,000.00,025.1,024.5,000.0,033.4,026.8,05.8,0000.0,0004.12,0016.93,0002.41
2024-03-10 22:04:00,SystemResetWarning,0826.6,5.00,000.00,025.1,024.5,000.0,033.4,026.9,05.7,0000.0,0004.13,0017.05,0002.36
2024-03-10 22:05:00,SystemResetWarning,0826.6,5.00,000.00,025.1,024.5,000.0,033.4,026.9,05.9,0000.0,0004.07,0016.56,0002.35
2024-03-10 22:06:00,SystemResetWarning,0826.6,5.00,000.00,025.1,024.5,000.0,033.4,026.9,05.8,0000.0,0004.08,0015.83,0002.36
2024-03-10 22:07:00,SystemResetWarning,0826.6,5.00,000.00,025.1,024.5,000.0,033.4,026.9,05.8,0000.0,0004.11,0015.34,0002.38
2024-03-10 22:08:00,SystemResetWarning,0826.7,5.00,000.00,025.1,024.5,000.0,033.4,026.9,05.9,0000.0,0004.15,0014.65,0002.39
2024-03-10 22:09:00,SystemResetWarning,0826.6,5.00,000.00,025.1,024.5,000.0,033.4,026.9,05.8,0000.0,0004.21,0013.79,0002.41
2024-03-10 22:10:00,SystemResetWarning,0826.6,5.00,000.00,025.1,024.5,000.0,033.4,026.9,05.9,0000.0,0004.27,0013.95,0002.44
2024-03-10 22:11:00,SystemResetWarning,0826.6,4.99,000.00,025.1,024.6,000.0,033.5,026.9,05.8,0000.0,0004.22,0013.61,0002.48
2024-03-10 22:12:00,SystemResetWarning,0826.6,4.99,000.00,025.2,024.6,000.0,033.5,026.9,05.9,0000.0,0004.15,0013.04,0002.49
2024-03-10 22:13:00,SystemResetWarning,0826.6,5.00,000.00,025.2,024.6,000.0,033.5,027.0,05.7,0000.0,0004.12,0013.26,0002.52
2024-03-10 22:14:00,SystemResetWarning,0826.6,5.00,000.00,025.2,024.6,000.0,033.5,027.0,05.7,0000.0,0004.11,0012.92,0002.53
2024-03-10 22:15:00,SystemResetWarning,0826.6,5.00,000.00,025.2,024.6,000.0,033.5,027.0,05.6,0000.0,0004.11,0012.60,0002.54
2024-03-10 22:16:00,SystemResetWarning,0826.7,5.01,000.00,025.2,024.6,000.0,033.5,027.0,05.7,0000.0,0004.18,0012.77,0002.57
2024-03-10 22:17:00,SystemResetWarning,0826.7,5.00,000.00,025.2,024.6,000.0,033.5,027.0,05.7,0000.0,0004.20,0012.52,0002.57
2024-03-10 22:18:00,SystemResetWarning,0826.6,4.99,000.00,025.2,024.6,000.0,033.5,027.0,05.7,0000.0,0004.19,0012.20,0002.58
2024-03-10 22:19:00,SystemResetWarning,0826.6,5.00,000.00,025.2,024.6,000.0,033.6,027.0,05.6,0000.0,0004.13,0011.60,0002.58
2024-03-10 22:20:00,SystemResetWarning,0826.6,5.00,000.00,025.3,024.6,000.0,033.6,027.0,05.6,0000.0,0004.09,0011.29,0002.56
2024-03-10 22:21:00,SystemResetWarning,0826.6,5.01,000.00,025.3,024.7,000.0,033.6,027.1,05.7,0000.0,0004.06,0010.91,0002.57
2024-03-10 22:22:00,SystemResetWarning,0826.6,5.00,000.00,025.3,024.7,000.0,033.6,027.1,05.6,0000.0,0004.06,0010.52,0002.58
2024-03-10 22:23:00,SystemResetWarning,0826.6,5.00,000.00,025.3,024.7,000.0,033.6,027.1,05.7,0000.0,0004.07,0010.23,0002.59
2024-03-10 22:24:00,SystemResetWarning,0826.6,5.00,000.00,025.3,024.7,000.0,033.6,027.1,05.5,0000.0,0004.06,0009.91,0002.58
2024-03-10 22:25:00,SystemResetWarning,0826.6,5.01,000.00,025.3,024.7,000.0,033.6,027.1,05.7,0000.0,0004.01,0009.48,0002.58
2024-03-10 22:26:00,SystemResetWarning,0826.6,5.00,000.00,025.3,024.7,000.0,033.7,027.1,05.4,0000.0,0004.00,0009.47,0002.59
2024-03-10 22:27:00,SystemResetWarning,0826.6,5.00,000.00,025.3,024.7,000.0,033.7,027.1,05.4,0000.0,0004.02,0009.17,0002.59
2024-03-10 22:28:00,SystemResetWarning,0826.6,5.00,000.00,025.4,024.7,000.0,033.7,027.1,05.3,0000.0,0004.06,0009.02,0002.61
2024-03-10 22:29:00,SystemResetWarning,0826.6,4.99,000.00,025.4,024.8,000.0,033.7,027.2,05.4,0000.0,0004.07,0009.77,0002.63
2024-03-10 22:30:00,SystemResetWarning,0826.6,5.00,000.00,025.4,024.8,000.0,033.7,027.2,05.7,0000.0,0004.08,0010.35,0002.64
2024-03-10 22:31:00,SystemResetWarning,0826.6,5.00,000.00,025.4,024.8,000.0,033.7,027.2,05.6,0000.0,0004.14,0011.00,0002.67
2024-03-10 22:32:00,SystemResetWarning,0826.6,5.00,000.00,025.4,024.8,000.0,033.7,027.2,05.7,0000.0,0004.14,0011.78,0002.70
2024-03-10 22:33:00,SystemResetWarning,0826.6,5.00,000.00,025.4,024.8,000.0,033.7,027.2,05.5,0000.0,0004.17,0012.04,0002.70
2024-03-10 22:34:00,SystemResetWarning,0826.6,5.00,000.00,025.4,024.8,000.0,033.8,027.2,05.4,0000.0,0004.22,0012.38,0002.71
2024-03-10 22:35:00,SystemResetWarning,0826.6,5.01,000.00,025.4,024.8,000.0,033.8,027.2,05.2,0000.0,0004.26,0012.50,0002.72
2024-03-10 22:36:00,SystemResetWarning,0826.6,5.00,000.00,025.4,024.8,000.0,033.8,027.2,05.4,0000.0,0004.25,0013.01,0002.73
2024-03-10 22:37:00,SystemResetWarning,0826.6,5.00,000.00,025.5,024.8,000.0,033.8,027.2,05.2,0000.0,0004.26,0013.93,0002.72
2024-03-10 22:38:00,SystemResetWarning,0826.6,5.00,000.00,025.5,024.8,000.0,033.8,027.3,05.0,0000.0,0004.24,0014.81,0002.72
2024-03-10 22:39:00,SystemResetWarning,0826.6,5.00,000.00,025.5,024.9,000.0,033.8,027.3,05.1,0000.0,0004.19,0014.98,0002.69
2024-03-10 22:40:00,SystemResetWarning,0826.6,5.00,000.00,025.5,024.9,000.0,033.8,027.3,05.1,0000.0,0004.16,0014.90,0002.65
2024-03-10 22:41:00,SystemResetWarning,0826.6,5.00,000.00,025.5,024.9,000.0,033.8,027.3,05.3,0000.0,0004.15,0014.56,0002.64
2024-03-10 22:42:00,SystemResetWarning,0826.6,5.00,000.00,025.5,024.9,000.0,033.9,027.3,05.3,0000.0,0004.12,0014.63,0002.62
2024-03-10 22:43:00,SystemResetWarning,0826.6,4.99,000.00,025.5,024.9,000.0,033.9,027.3,05.3,0000.0,0004.09,0014.43,0002.56
2024-03-10 22:44:00,SystemResetWarning,0826.6,5.00,000.00,025.5,024.9,000.0,033.9,027.3,05.3,0000.0,0004.06,0014.54,0002.51
2024-03-10 22:45:00,SystemResetWarning,0826.6,5.00,000.00,025.6,024.9,000.0,033.9,027.4,05.3,0000.0,0004.03,0014.62,0002.47
2024-03-10 22:46:00,SystemResetWarning,0826.6,5.00,000.00,025.6,024.9,000.0,033.9,027.4,05.6,0000.0,0003.99,0014.76,0002.46
2024-03-10 22:47:00,SystemResetWarning,0826.6,5.00,000.00,025.6,025.0,000.0,033.9,027.4,05.6,0000.0,0004.01,0014.90,0002.45
2024-03-10 22:48:00,SystemResetWarning,0826.6,5.00,000.00,025.6,025.0,000.0,033.9,027.4,06.0,0000.0,0004.01,0013.92,0002.42
2024-03-10 22:49:00,SystemResetWarning,0826.6,5.00,000.00,025.6,025.0,000.0,033.9,027.4,05.7,0000.0,0004.03,0013.73,0002.40
2024-03-10 22:50:00,SystemResetWarning,0826.6,5.00,000.00,025.6,025.0,000.0,034.0,027.4,05.9,0000.0,0004.06,0013.62,0002.39
2024-03-10 22:51:00,SystemResetWarning,0826.6,5.00,000.00,025.6,025.0,000.0,034.0,027.4,06.1,0000.0,0004.07,0013.99,0002.39
2024-03-10 22:52:00,SystemResetWarning,0826.6,5.00,000.00,025.6,025.0,000.0,034.0,027.4,05.8,0000.0,0004.10,0014.06,0002.39
2024-03-10 22:53:00,SystemResetWarning,0826.6,5.00,000.00,025.7,025.0,000.0,034.0,027.4,05.9,0000.0,0004.13,0014.14,0002.40
2024-03-10 22:54:00,SystemResetWarning,0826.6,5.00,000.00,025.7,025.0,000.0,034.0,027.5,05.9,0000.0,0004.18,0013.56,0002.42
2024-03-10 22:55:00,SystemResetWarning,0826.6,5.00,000.00,025.7,025.0,000.0,034.0,027.5,05.8,0000.0,0004.25,0013.71,0002.44
2024-03-10 22:56:00,SystemResetWarning,0826.6,5.00,000.00,025.7,025.0,000.0,034.0,027.5,05.7,0000.0,0004.25,0014.26,0002.42
2024-03-10 22:57:00,SystemResetWarning,0826.6,5.00,000.00,025.7,025.1,000.0,034.1,027.5,05.6,0000.0,0004.21,0013.79,0002.38
2024-03-10 22:58:00,SystemResetWarning,0826.6,5.01,000.00,025.7,025.1,000.0,034.1,027.5,05.9,0000.0,0004.15,0014.03,0002.36
2024-03-10 22:59:00,SystemResetWarning,0826.6,4.99,000.00,025.7,025.1,000.0,034.1,027.5,06.0,0000.0,0004.18,0014.80,0002.38
